Regional Weather Roundup
Issued by NWS

Home | Current Version | Previous Version | Graphics & Text | Print | Product List | Glossary On
Versions: 1 2 3 4 5 6 7 8 9 10 11 12 13 14 15 16 17 18 19 20 21 22 23 24 25 26 27 28 29 30 31 32 33 34 35 36 37 38 39 40 41 42 43 44 45 46 47 48 49 50
000
ASUS43 KIND 250859
RWRIN

WEATHER ROUNDUP FOR INDIANA
NATIONAL WEATHER SERVICE INDIANAPOLIS IN
500 AM EDT SUN SEP 25 2016

NOTE: "FAIR" INDICATES FEW OR NO CLOUDS BELOW 12,000 FEET WITH NO
SIGNIFICANT WEATHER AND/OR OBSTRUCTIONS TO VISIBILITY.

* - STATION DOES NOT REPORT WEATHER SUCH AS PRECIPITATION OR FOG.

+ - STATION NOT QUALITY CONTROLLED BY THE NATIONAL WEATHER SERVICE.
    USE DATA WITH CAUTION...ESPECIALLY DEWPOINT AND RELATIVE
    HUMIDITY OBSERVATIONS.

INZ001>003-010>013-019-020-251000-
NORTHWEST INDIANA

CITY           SKY/WX    TMP DP  RH WIND       PRES   REMARKS

$$

LMZ046-743>745-251000-
SOUTHERN LAKE MICHIGAN

STATION/POSITION TIME  TEMP    WIND        PRES    WAVE
                       AIR SEA DIR/SP/G            HT
                 (UTC) (F)     (DEG/KT/KT) (MB)    (FT)
BURNS HARBOR     0800   66     140/ 13/ 19 1020.3F
MICHIGAN CITY    0800   64     120/ 11/ 13   N/A
5NW MICH CITY    0810   65 68  150/ 12/ 16   N/A     1

$$

INZ004-005-014>016-021>024-251000-
NORTH CENTRAL INDIANA

CITY           SKY/WX    TMP DP  RH WIND       PRES   REMARKS
GOSHEN         CLEAR     59  51  75 SE7       30.16F
PERU/GRISSOM   CLEAR     60  54  80 E7        30.13F
SOUTH BEND     MOCLDY    60  54  80 SE10      30.16S

$$

INZ006>009-017-018-025>027-251000-
NORTHEAST INDIANA

CITY           SKY/WX    TMP DP  RH WIND       PRES   REMARKS
ANGOLA *+        N/A     55  45  67 SE6       30.18S
FORT WAYNE     CLEAR     57  50  77 E6        30.17F
KENDALLVILLE + CLEAR     56  52  86 SE6       30.18S

$$

INZ028-029-035-036-043>045-051>053-251000-
WEST CENTRAL INDIANA

CITY           SKY/WX    TMP DP  RH WIND       PRES   REMARKS
CRAWFORDSVL +  CLEAR     61  61 100 E3        30.11F
GREENCASTLE +  CLEAR     64  64 100 CALM      30.12S
LAFAYETTE      CLEAR     63  60  90 E10       30.12S
TERRE HAUTE    CLEAR     66  64  93 CALM      30.09F

$$

INZ030>032-037>040-046>048-054>057-064-065-251000-
CENTRAL INDIANA

CITY           SKY/WX    TMP DP  RH WIND       PRES   REMARKS
INDIANAPOLIS   CLEAR     67  60  78 E6        30.11S
-EAGLE CREEK   CLEAR     65  60  84 NE5       30.12S
MT COMFORT *+  CLEAR     61  59  94 NE3       30.13S
SHELBYVILLE    CLEAR     64  60  87 E5        30.11F

$$

INZ033-034-041-042-049-050-058-059-251000-
EAST CENTRAL INDIANA

CITY           SKY/WX    TMP DP  RH WIND       PRES   REMARKS
MUNCIE         CLEAR     59  55  87 E3        30.15F

$$

INZ060-061-067>069-081>083-085>088-251000-
SOUTHWEST INDIANA

CITY           SKY/WX    TMP DP  RH WIND       PRES   REMARKS
EVANSVILLE     CLEAR     67  64  90 NE3       30.08S
HUNTINGBURG *+   N/A     66  63  88 CALM      30.09S

$$

INZ062-063-066-070>080-084-089>092-251000-
SOUTH CENTRAL AND SOUTHEAST INDIANA

CITY           SKY/WX    TMP DP  RH WIND       PRES   REMARKS
BLOOMINGTON    CLEAR     67  63  87 CALM      30.11S
MADISON *+     CLEAR     68  63  83 E3        30.13S
SEYMOUR +      CLEAR     64  63  94 CALM      30.10F FOG

$$




USA.gov is the U.S. government's official web portal to all federal, state and local government web resources and services.